Orbital Elements at Epoch 2459000.5 (2020-May-31.0) TDB
Reference: JPL 19 (heliocentric ecliptic J2000)
Element | Value | Uncertainty (1-sigma) | Units |
e | .1468416304248057 | 5.3019e-08 | |
a | 3.101491791926005 | 2.5065e-08 | au |
q | 2.646063680450438 | 1.7222e-07 | au |
i | 1.447943892648416 | 5.6701e-06 | deg |
node | 199.9077018925234 | 0.00017746 | deg |
peri | 179.8379083001626 | 0.0001783 | deg |
M | 220.5409521595049 | 2.1271e-05 | deg |
tp | 2459773.355987834120 (2022-Jul-12.85598783) | 0.00012437 | TDB |
period | 1995.052740776661 5.46 | 2.4185e-05 6.621e-08 | d yr |
n | .1804463574531139 | 2.1875e-09 | deg/d |
Q | 3.556919903401572 | 2.8746e-08 | au |
|
| | Orbit Determination Parameters
Additional Information
|